Regional Weather Roundup
Issued by NWS

Home | Current Version | Previous Version | Text Only | Print | Product List | Glossary On
Versions: 1 2 3 4 5 6 7 8 9 10 11 12 13 14 15 16 17 18 19 20 21 22 23 24 25 26 27 28 29 30 31 32 33 34 35 36 37 38 39 40 41 42 43 44 45 46 47 48 49 50
948
ASUS45 KREV 120210
RWRNV
NEVADA REGIONAL WEATHER ROUNDUP
NATIONAL WEATHER SERVICE RENO NV
600 PM PST MON NOV 11 2019

NOTE: "FAIR" INDICATES FEW OR NO CLOUDS BELOW 12,000 FEET WITH NO
SIGNIFICANT WEATHER AND/OR OBSTRUCTIONS TO VISIBILITY.

NVZ001-003-004-120300-
WESTERN NEVADA

CITY           SKY/WX    TMP DP  RH WIND       PRES   REMARKS
RENO           MOCLDY    58  30  34 SE5       30.27R
CARSON CITY    FAIR      54  27  35 MISG      30.26R
SLIDE MTN        N/A     45  28  53 SE1         N/A
FALLON         PTCLDY    49  28  44 NE5       30.26R
LOVELOCK       PTCLDY    54  31  41 NE12      30.26S
HAWTHORNE      CLEAR     52  21  30 SW8       30.26S
$$

NVZ002-CAZ072-073-120300-
NORTHERN AND CENTRAL SIERRA

CITY           SKY/WX    TMP DP  RH WIND       PRES   REMARKS
S. LAKE TAHOE  PTCLDY    44  27  51 CALM      30.30R
TRUCKEE        MOCLDY    43  28  56 CALM      30.31R
SQUAW VLY 8000   N/A     43  25  49 CALM        N/A
BLUE CANYON    PTCLDY    59  29  31 NE3       30.23S
MAMMOTH LAKES  FAIR      44  17  34 CALM      30.34R
BRIDGEPORT       N/A     48  23  37 N5          N/A
$$

NVZ030-031-036-120300-
NORTHERN NEVADA

CITY           SKY/WX    TMP DP  RH WIND       PRES   REMARKS
ELKO           PTCLDY    41  13  31 E3        30.33S
WINNEMUCCA     MOCLDY    51  15  23 NE8       30.29S
BATTLE MOUNTAI MOCLDY    46  18  31 N5        30.31S
WENDOVER       MOCLDY    39  21  48 CALM      30.38R
$$

NVZ035-037-120300-
CENTRAL NEVADA

CITY           SKY/WX    TMP DP  RH WIND       PRES   REMARKS
ELY            CLEAR     40  18  41 N10       30.34S
EUREKA           N/A     36  13  38 CALM      30.34R
$$

NVZ013-014-120300-
SOUTH CENTRAL NEVADA

CITY           SKY/WX    TMP DP  RH WIND       PRES   REMARKS
TONOPAH        CLEAR     57  21  24 N6        30.27R
$$

NVZ017-020-022-120300-
SOUTHERN NEVADA

CITY           SKY/WX    TMP DP  RH WIND       PRES   REMARKS
LAS VEGAS      PTCLDY    71  23  16 NE7       30.08S
N. LAS VEGAS   CLEAR     71  23  16 N6        30.10R
NELLIS AFB     CLEAR     70  23  17 CALM      30.08R
HENDERSON      CLEAR     65  26  23 E6        30.13R
MERCURY        CLEAR     66  20  17 E8        30.14R
$$




USA.gov is the U.S. government's official web portal to all federal, state and local government web resources and services.